Regional Weather Roundup
Issued by NWS Huntsville, AL

Home | Current Version | Previous Version | Text Only | Print | Product List | Glossary On
Versions: 1 2 3 4 5 6 7 8 9 10 11 12 13 14 15 16 17 18 19 20 21 22 23 24 25 26 27 28 29 30 31 32 33 34 35 36 37 38 39 40 41 42 43 44 45 46 47 48 49 50
000
ASUS44 KHUN 192110
RWRHUN

WEATHER ROUNDUP FOR THE TENNESSEE VALLEY
NATIONAL WEATHER SERVICE HUNTSVILLE AL
300 PM CST SUN FEB 19 2017

ALZ001>004-192200-
NORTHWEST ALABAMA

CITY           SKY/WX    TMP DP  RH WIND       PRES   REMARKS
COURTLAND HCN    N/A     70 N/A N/A NW6         N/A
RUSSELLVILLE     N/A     72 N/A N/A MISG        N/A
SHOALS AIRPORT SUNNY     72  49  44 W5        30.10F
SHOALS TVA RES   N/A     72 N/A N/A MISG        N/A
$$

ALZ005>007-016-192200-
NORTH CENTRAL ALABAMA

CITY           SKY/WX    TMP DP  RH WIND       PRES   REMARKS
CULLMAN AG STN   N/A     70 N/A N/A N3          N/A
DECATUR AP     SUNNY     69  53  56 VRB5      30.10S
HUNTSVILLE AP  MOSUNNY   72  51  47 NE3       30.09F
MERIDIANVILLE  SUNNY     68  46  45 N3        30.10F
REDSTONE ARSN  SUNNY     71  50  47 NE7       30.09S
VINEMONT AP    FAIR      69  46  42 NW3       30.12F
$$

ALZ008>010-192200-
NORTHEAST ALABAMA

CITY           SKY/WX    TMP DP  RH WIND       PRES   REMARKS
ALBERTVILLE    SUNNY     70  54  56 NW5       30.09S
FORT PAYNE     SUNNY     70  41  35 NW7       30.09S
SCOTTSBORO AP  SUNNY     68  50  52 SE6       30.09F
SCOTTSBORO HCN   N/A     72 N/A N/A MISG        N/A
VALLEY HEAD      N/A     68 N/A N/A MISG        N/A
$$

TNZ076-096-097-192200-
SOUTHEASTERN MIDDLE TENNESSEE

CITY           SKY/WX    TMP DP  RH WIND       PRES   REMARKS
TULLAHOMA      SUNNY     68  46  45 CALM      30.12S
WINCHESTER     SUNNY     66  48  52 CALM      30.11F
$$

...SURROUNDING SITES...

CITY           SKY/WX    TMP DP  RH WIND       PRES   REMARKS
ATLANTA        MOSUNNY   68  49  50 N16       30.08R
ANNISTON       SUNNY     72  48  42 N8        30.09S
BIRMINGHAM     SUNNY     74  49  41 NE5       30.11F
CHATTANOOGA    MOSUNNY   68  47  46 NW3       30.11R
CORINTH        FAIR      73  50  43 CALM      30.07S
DALTON         SUNNY     64  50  59 N6        30.11R
GADSDEN        SUNNY     72  48  42 VRB3      30.09S
GOLDEN TRNGL   SUNNY     73  52  46 CALM      30.03F
HALEYVILLE     FAIR      72  51  47 VRB3      30.12S
JACKSON TN     SUNNY     74  55  51 NW5       30.07F
MEMPHIS        MOSUNNY   75  53  46 CALM      30.05F
NASHVILLE      MOSUNNY   67  50  54 CALM      30.11S
OXFORD MS      FAIR      75  46  35 NW3       30.07S
ROME           SUNNY     69  48  47 NE6       30.09R
SAVANNAH       SUNNY     72  50  46 CALM      30.07F
TUPELO         SUNNY     75  47  36 SE3       30.07F
TUSCALOOSA     SUNNY     76  50  40 NE8       30.08S
$$

...GULF COAST WEATHER...

CITY           SKY/WX    TMP DP  RH WIND       PRES   REMARKS
GULFPORT       SUNNY     75  60  59 SE10      30.04F
PASCAGOULA     SUNNY     77  57  50 S8        30.05S
MOBILE         MOSUNNY   82  52  35 VRB3      30.05F
GULF SHORES    CLEAR     71  62  71 SE9       30.05F
PENSACOLA      MOSUNNY   74  59  59 S12       30.05S
DESTIN         SUNNY     74  63  68 VRB5      30.05S
PANAMA CITY    SUNNY     73  62  68 W10       30.05R
APPALACHICOLA  SUNNY     71  66  84 S9        30.05S
$$




USA.gov is the U.S. government's official web portal to all federal, state and local government web resources and services.